Location: Newark
(43.9494°N, 6.8108°E)
Time: 04:49:59
(UTC+00:00)

OTV 5 (USA 277) - Visible Passes

Search period start: 23 September 2019 00:00
Search period end: 03 October 2019 00:00
Orbit: 295 x 339 km, 54.5° (Epoch: 08 September)

Date Brightness Start Highest point End Pass type
(mag) Time Alt. Az. Time Alt. Az. Time Alt. Az.
29 Sep ? 04:41:07 10° SE 04:41:27 10° SE 04:41:46 10° ESE visible
30 Sep ? 04:53:20 10° SSW 04:55:45 25° SE 04:58:09 10° ENE visible
02 Oct ? 03:49:21 12° SSE 03:50:41 16° SE 03:52:32 10° E visible
